Regional Weather Roundup
Issued by NWS

Home | Current Version | Previous Version | Graphics & Text | Print | Product List | Glossary On
Versions: 1 2 3 4 5 6 7 8 9 10 11 12 13 14 15 16 17 18 19 20 21 22 23 24 25 26 27 28 29 30 31 32 33 34 35 36 37 38 39 40 41 42 43 44 45 46 47 48 49 50
000
ASUS43 KLOT 261706
RWRIL

ILLINOIS REGIONAL WEATHER ROUNDUP
NATIONAL WEATHER SERVICE CHICAGO/ROMEOVILLE IL
1100 AM CST MON JAN 26 2015

NOTE: "FAIR" INDICATES FEW OR NO CLOUDS BELOW 12,000 FEET WITH NO
SIGNIFICANT WEATHER AND/OR OBSTRUCTIONS TO VISIBILITY.

* THESE STATIONS ARE NOT UNDER NWS QUALITY CONTROL. THEY ALSO MAY NOT
  REPORT WEATHER SUCH AS PRECIPITATION OR FOG.

ILZ001-002-007-009-015-016-024-261800-
NORTHWEST ILLINOIS

CITY           SKY/WX    TMP DP  RH WIND       PRES   REMARKS
MOLINE         LGT SNOW  24  21  88 S5        29.89F VSB 1   WCI  18
STERLING*      CLOUDY    21  16  79 S5        29.92F WCI  15
SAVANNA*       FLURRIES  22  19  85 S7        29.91F WCI  14
$$

ILZ003-004-008-010-011-017-018-261800-
NORTH CENTRAL ILLINOIS

CITY           SKY/WX    TMP DP  RH WIND       PRES   REMARKS
ROCKFORD       LGT SNOW  22  16  78 S7        29.92F WCI  13
FREEPORT*      LGT SNOW  20  17  87 S7        29.91F WCI  11
ROCHELLE*      LGT SNOW  21  18  86 CALM      29.92F
DE KALB*       CLOUDY    21  17  83 S8        29.92F WCI  12
PERU*          LGT SNOW  23  19  85 S5        29.95F WCI  17
$$

ILZ005-006-012>014-019>023-261800-
NORTHEAST ILLINOIS

CITY           SKY/WX    TMP DP  RH WIND       PRES   REMARKS
CHICAGO-OHARE  CLOUDY    24  16  71 SW7       29.92F WCI  16
CHICAGO-MIDWAY CLOUDY    26  18  71 S5        29.93F WCI  20
AURORA         CLOUDY    24  17  74 S6        29.93F WCI  17
LANSING*       CLOUDY    23  16  74 S5        29.95F WCI  17
JOLIET*        CLOUDY    24  18  76 SW3       29.95F
WAUKEGAN       PTSUNNY   25  17  72 S7        29.91F WCI  17
DUPAGE AIRPORT CLOUDY    24  17  74 S8        29.91F WCI  15
KANKAKEE*      PTSUNNY   26  22  82 SW3       29.96F
WHEELING       PTSUNNY   25  16  68 VRB3      29.94F
MORRIS*        CLOUDY    24  20  87 SW5       29.94F WCI  18
ROMEOVILLE*    CLOUDY    25  18  76 SW6       29.94F WCI  18
NORTHERLY ISL    N/A     25  16  68 S3          N/A
$$

LMZ740>746-261800-
SOUTHERN LAKE MICHIGAN

STATION/POSITION SKY/WX   TEMP    WIND        PRES    VSBY  WAVE
                          AIR SEA DIR/SP/G                  HT/PER
                          (F)     (DEG/KT/KT) (MB)    (MI)  (FT/S)
WAUKEGAN HARBOR            24     200/  5/  7   N/A
HARRISON CRIB              23     170/  8/ 10   N/A
BURNHAM HARBOR             25     160/  3/  7   N/A
CALUMET HARBOR             23     170/  5/  6   N/A
MICHIGAN CITY              20     230/  2/  3   N/A
$$

ILZ025>027-034>036-040-047-049-050-058-095>099-261800-
WEST-CENTRAL ILLINOIS

CITY           SKY/WX    TMP DP  RH WIND       PRES   REMARKS
QUINCY         CLOUDY    31  27  85 S9        29.90F WCI  23
GALESBURG*     SNOW      25  23  93 S8        29.94S VSB 1/2 WCI  16
MACOMB*        LGT SNOW  28  26  96 S3        29.98R
JACKSONVILLE*  LGT SNOW  30  27  89 S6        29.96F VSB 1   WCI  24
PITTSFIELD*    CLOUDY    32  27  83 S8        29.96F WCI  24
$$

ILZ028>032-037-038-041>044-048-051>054-059>061-261800-
CENTRAL ILLINOIS

CITY           SKY/WX    TMP DP  RH WIND       PRES   REMARKS
PONTIAC        CLOUDY    25  21  83 S3        29.96F
BLOOMINGTON    MOSUNNY   25  20  81 SW6       29.96F WCI  18
DECATUR        CLOUDY    26  24  92 W5        29.96F WCI  20
PEORIA         LGT SNOW  25  20  81 SW3       29.97R VSB 3/4
LACON*         LGT SNOW  23  19  86 SW3       29.96R VSB 1
LINCOLN*       CLOUDY    28  21  77 CALM      29.98F HAZE
SPRINGFIELD    CLOUDY    28  21  75 S7        29.97S WCI  21
TAYLORVILLE    CLOUDY    28  21  74 SW6       29.97F WCI  22
$$

ILZ033-039-045-046-055>057-062-063-261800-
EAST-CENTRAL ILLINOIS

CITY           SKY/WX    TMP DP  RH WIND       PRES   REMARKS
CHAMPAIGN      CLOUDY    26  21  81 W8        29.96F WCI  18
DANVILLE*      CLOUDY    25  20  80 CALM      29.94F
RANTOUL*       CLOUDY    28  23  81 SW5       29.95F WCI  23
MATTOON        CLOUDY    26  20  77 W8        29.98F WCI  18
PARIS*         CLOUDY    28  24  84 NE9       29.98F WCI  19
$$

ILZ079-100>102-261800-
SOUTHWEST ILLINOIS

CITY           SKY/WX    TMP DP  RH WIND       PRES   REMARKS
ALTON          CLOUDY    30  25  80 S10       30.01F WCI  21
BELLEVILLE     CLOUDY    32  25  77 VRB6      30.03F WCI  26
CAHOKIA*       CLOUDY    32  25  75 S8        30.03F WCI  25
SPARTA*        CLOUDY    31  24  77 W5        30.06F WCI  26
$$

ILZ064>066-069>071-074>076-080>082-084>086-088>090-092>094-261800-
SOUTH-CENTRAL ILLINOIS

CITY           SKY/WX    TMP DP  RH WIND       PRES   REMARKS
CARBONDALE     CLOUDY    32  23  69 NW14G20   30.07F WCI  22
CAIRO*         PTSUNNY   37  28  70 NW8       30.09F WCI  31
EFFINGHAM*     CLOUDY    29  19  68 W7        30.02F WCI  22
MARION         CLOUDY    32  25  74 NW12      30.07F WCI  23
MT. VERNON     CLOUDY    30  19  64 W5        30.04F WCI  25
CENTRALIA*     PTSUNNY   29  22  74 W8        30.03F WCI  21
SALEM*         CLOUDY    31  22  71 W9        30.03F WCI  23
METROPOLIS*    MOSUNNY   35  27  74 W8        30.07F WCI  28
$$

ILZ067-068-072-073-078-083-087-091-261800-
SOUTHEAST ILLINOIS

CITY           SKY/WX    TMP DP  RH WIND       PRES   REMARKS
LAWRENCEVILLE  CLOUDY    30  24  78 W10       30.01F WCI  21
FLORA*         CLOUDY    28  21  75 NW12      30.02F WCI  18
FAIRFIELD*     PTSUNNY   30  22  73 W5        30.03F WCI  25
HARRISBURG*    MOSUNNY   32  24  72 W8        30.07F WCI  25
ROBINSON*      CLOUDY    29  25  84 NW9       30.03S WCI  21
CARMI*         CLOUDY    30  27  86 W13       30.04F WCI  20
$$

ABBREVIATIONS USED IN REMARKS
   TC - TEMPERATURE IN CELSIUS
  WCI - WIND CHILL INDEX
   HX - HEAT INDEX
  VSB - VISIBILITY
$$




USA.gov is the U.S. government's official web portal to all federal, state and local government web resources and services.